HISPASAT 30W-5

Last updated on Sun Dec 14 2025 00:02:49 GMT+0000 (Coordinated Universal Time)

1 37264U 10070A 25347.19773494 -.00000202 00000+0 00000+0 0 9998 2 37264 0.0412 149.0375 0003033 96.3643 237.9120 1.00272890 51324
UTC large
Height (km)
Speed (km/s)
/
Latitude / Longitude
Inclination (degrees)
Orbital Period (minutes)
Azimuth
Elevation
Range (km)
Doppler Factor

Next 0 passes for location: London (51.5072 / 0.1276)

Sorry there are no passes over London.